7 * 24
多渠道服务支持
STARLINK-36961(NORAD编号68900)是SpaceX星链(Starlink)互联网卫星星座中的一颗低轨通信卫星。星链作为全球规模最大的低轨卫星互联网项目,已完成多轮技术迭代,该卫星大概率属于V2.0 mini版本。其配备相控阵天线与光学激光星间链路,可同时连接多用户终端,在低轨构建低延迟、高带宽通信链路,为全球提供宽带互联网接入服务。卫星设计在轨寿命约4-5年,后续将由新型号卫星迭代替代,共同完善星链全球覆盖网络。
美国
(US)
| 数据来源 | 国际轨道数据 |
| 星历时间: | 2026-05-24T10:29:40+0800 1天前 查看轨道信息 |
| 半长轴: | 6797.19km |
| 偏心率: | 0.0002475 |
| 轨道倾角: | 97.285° |
| 近地点辐角 | 91.313° |
| 升交点赤经 | 339.784° |
| 平近点角 | 268.841° |
| 近地点: | 417.37km |
| 远地点: | 420.736km |
| 周期: | 92.951分钟 |
| 每日圈数: | 15.492043 |